Location: *
(40.7873°S, 98.7174°E)
Time: 00:28:27
(UTC+00:00)

ARIANE 6 FM1 Upper Stage - Pass Details

Date: 21 December 2025
Orbit: 522 x 610 km, 62.0° (Epoch: 20 January)

Event Time Altitude Azimuth Distance (km) Brightness Sun altitude
Rises 17:11:21 0° 211° (SSW) 2,910 7.3 -25.7°
Reaches altitude 10° 17:13:50 10° 201° (SSW) 1,994 6.4 -25.7°
Maximum altitude 17:17:59 35° 135° (SE) 1,006 4.2 -25.8°
Enters shadow 17:19:09 30° 103° (ESE) 1,111 4.2 -25.8°
